When you browse on this site, cookies collect data to enhance your experience and personalize the content and advertising you see.
Visit our Privacy Policy to learn more. By continuing to use the site, you agree to this use of cookies and data.
  • In France
  • List of Countries
  • For 7 days
  • Water Temperature
  • Weather Map
  • Weather Widgets
  • user-avatar
    Login

    Hourly Weather Annaba

    Today, 18 February, Tuesday

    Time Temperature Precipitation Wind Pressure Humidity
    00:00 +13°C° 0 mm 1 mps 767 mmHg 77%
    01:00 +13°C° 0 mm 2 mps 767 mmHg 77%
    02:00 +13°C° 0 mm 2 mps 767 mmHg 79%
    03:00 +12°C° 0 mm 2 mps 767 mmHg 80%
    04:00 +12°C° 0 mm 2 mps 767 mmHg 82%
    05:00 +12°C° 0 mm 2 mps 767 mmHg 84%
    06:00 +12°C° 0 mm 2 mps 767 mmHg 86%
    07:00 +11°C° 0 mm 3 mps 768 mmHg 88%
    08:00 +12°C° 0 mm 3 mps 768 mmHg 85%
    09:00 +14°C° 0 mm 3 mps 768 mmHg 83%
    10:00 +16°C° 0 mm 3 mps 769 mmHg 81%
    11:00 +16°C° 0.1 mm 3 mps 768 mmHg 81%
    12:00 +15°C° 0.1 mm 4 mps 768 mmHg 81%
    13:00 +17°C° 0.1 mm 4 mps 768 mmHg 81%
    14:00 +17°C° 0.1 mm 4 mps 768 mmHg 80%
    15:00 +17°C° 0.1 mm 4 mps 768 mmHg 79%
    16:00 +17°C° 0.1 mm 4 mps 768 mmHg 78%
    17:00 +15°C° 0 mm 4 mps 768 mmHg 80%
    18:00 +14°C° 0 mm 4 mps 768 mmHg 82%
    19:00 +13°C° 0 mm 3 mps 769 mmHg 83%
    20:00 +12°C° 0 mm 3 mps 769 mmHg 84%
    21:00 +12°C° 0 mm 3 mps 769 mmHg 85%
    22:00 +11°C° 0 mm 3 mps 769 mmHg 86%
    23:00 +11°C° 0 mm 3 mps 769 mmHg 86%

    Tomorrow, 19 February, Wednesday

    Time Temperature Precipitation Wind Pressure Humidity
    00:00 +10°C° 0 mm 3 mps 769 mmHg 87%
    01:00 +10°C° 0 mm 3 mps 769 mmHg 87%
    02:00 +10°C° 0 mm 3 mps 769 mmHg 87%
    03:00 +10°C° 0 mm 3 mps 769 mmHg 87%
    04:00 +9°C° 0 mm 3 mps 769 mmHg 87%
    05:00 +9°C° 0 mm 3 mps 769 mmHg 87%
    06:00 +9°C° 0 mm 3 mps 769 mmHg 87%
    07:00 +9°C° 0 mm 3 mps 769 mmHg 87%
    08:00 +11°C° 0 mm 4 mps 769 mmHg 83%
    09:00 +12°C° 0 mm 4 mps 769 mmHg 78%
    10:00 +13°C° 0 mm 4 mps 770 mmHg 74%
    11:00 +14°C° 0 mm 5 mps 770 mmHg 70%
    12:00 +14°C° 0 mm 5 mps 769 mmHg 66%
    13:00 +15°C° 0 mm 5 mps 769 mmHg 63%
    14:00 +15°C° 0 mm 5 mps 769 mmHg 64%
    15:00 +14°C° 0 mm 5 mps 769 mmHg 64%
    16:00 +14°C° 0 mm 5 mps 768 mmHg 65%
    17:00 +13°C° 0 mm 5 mps 768 mmHg 70%
    18:00 +12°C° 0 mm 5 mps 768 mmHg 75%
    19:00 +11°C° 0 mm 4 mps 768 mmHg 80%
    20:00 +10°C° 0 mm 4 mps 769 mmHg 81%
    21:00 +10°C° 0 mm 4 mps 769 mmHg 83%
    22:00 +8°C° 0 mm 4 mps 769 mmHg 84%
    23:00 +8°C° 0 mm 4 mps 769 mmHg 84%

    Day after tomorrow, 20 February, Thursday

    Time Temperature Precipitation Wind Pressure Humidity
    00:00 +9°C° 0 mm 3 mps 769 mmHg 85%
    01:00 +9°C° 0 mm 3 mps 768 mmHg 85%
    02:00 +8°C° 0 mm 3 mps 768 mmHg 85%
    03:00 +8°C° 0 mm 3 mps 768 mmHg 85%
    04:00 +8°C° 0 mm 3 mps 767 mmHg 85%
    05:00 +8°C° 0 mm 2 mps 767 mmHg 85%
    06:00 +8°C° 0 mm 2 mps 767 mmHg 85%
    07:00 +7°C° 0 mm 2 mps 767 mmHg 85%
    08:00 +9°C° 0 mm 2 mps 767 mmHg 78%
    09:00 +12°C° 0 mm 2 mps 767 mmHg 70%
    10:00 +14°C° 0 mm 2 mps 767 mmHg 63%
    11:00 +15°C° 0 mm 2 mps 767 mmHg 59%
    12:00 +17°C° 0 mm 2 mps 766 mmHg 55%
    13:00 +18°C° 0 mm 2 mps 766 mmHg 51%
    14:00 +18°C° 0 mm 2 mps 765 mmHg 53%
    15:00 +18°C° 0 mm 3 mps 765 mmHg 56%
    16:00 +17°C° 0 mm 4 mps 764 mmHg 58%
    17:00 +15°C° 0 mm 4 mps 764 mmHg 67%
    18:00 +13°C° 0 mm 3 mps 764 mmHg 75%
    19:00 +11°C° 0 mm 3 mps 765 mmHg 83%
    20:00 +11°C° 0 mm 3 mps 765 mmHg 84%
    21:00 +10°C° 0 mm 3 mps 765 mmHg 84%
    22:00 +10°C° 0 mm 2 mps 766 mmHg 85%
    23:00 +10°C° 0 mm 2 mps 766 mmHg 85%

    21 February, Friday

    Time Temperature Precipitation Wind Pressure Humidity
    00:00 +9°C° 0 mm 2 mps 766 mmHg 85%
    01:00 +9°C° 0 mm 2 mps 766 mmHg 85%
    02:00 +9°C° 0 mm 2 mps 766 mmHg 84%
    03:00 +10°C° 0 mm 1 mps 766 mmHg 83%
    04:00 +10°C° 0 mm 1 mps 765 mmHg 82%
    05:00 +10°C° 0 mm 1 mps 766 mmHg 82%
    06:00 +9°C° 0 mm 1 mps 766 mmHg 81%
    07:00 +9°C° 0 mm 1 mps 766 mmHg 80%
    14:00 +18°C° 0 mm 2 mps 767 mmHg 59%
    15:00 +18°C° 0 mm 2 mps 766 mmHg 61%
    16:00 +17°C° 0 mm 3 mps 766 mmHg 62%
    17:00 +16°C° 0 mm 2 mps 767 mmHg 70%
    18:00 +14°C° 0 mm 2 mps 767 mmHg 77%
    19:00 +12°C° 0 mm 2 mps 768 mmHg 84%
    20:00 +12°C° 0 mm 1 mps 768 mmHg 85%
    21:00 +11°C° 0 mm 1 mps 768 mmHg 85%
    22:00 +10°C° 0 mm 0 mps 769 mmHg 86%
    23:00 +11°C° 0 mm 1 mps 769 mmHg 86%

    22 February, Saturday

    Time Temperature Precipitation Wind Pressure Humidity
    00:00 +10°C° 0 mm 1 mps 769 mmHg 87%
    01:00 +10°C° 0 mm 1 mps 769 mmHg 87%
    02:00 +10°C° 0 mm 1 mps 769 mmHg 87%
    03:00 +10°C° 0 mm 1 mps 769 mmHg 87%
    04:00 +10°C° 0 mm 1 mps 769 mmHg 87%
    05:00 +10°C° 0 mm 1 mps 770 mmHg 88%
    06:00 +9°C° 0 mm 1 mps 770 mmHg 88%
    07:00 +9°C° 0 mm 1 mps 770 mmHg 89%
    08:00 +11°C° 0 mm 1 mps 770 mmHg 82%
    09:00 +13°C° 0 mm 1 mps 771 mmHg 76%
    10:00 +15°C° 0 mm 1 mps 771 mmHg 70%
    11:00 +16°C° 0 mm 2 mps 771 mmHg 66%
    12:00 +17°C° 0 mm 2 mps 771 mmHg 61%
    13:00 +18°C° 0 mm 2 mps 771 mmHg 57%
    14:00 +17°C° 0 mm 2 mps 770 mmHg 60%
    15:00 +17°C° 0 mm 3 mps 770 mmHg 62%
    16:00 +17°C° 0 mm 3 mps 770 mmHg 65%
    17:00 +15°C° 0 mm 2 mps 770 mmHg 72%
    18:00 +14°C° 0 mm 2 mps 771 mmHg 79%
    19:00 +12°C° 0 mm 1 mps 771 mmHg 86%
    20:00 +12°C° 0 mm 1 mps 771 mmHg 87%
    21:00 +10°C° 0 mm 2 mps 772 mmHg 87%
    22:00 +10°C° 0 mm 2 mps 772 mmHg 88%
    23:00 +10°C° 0 mm 2 mps 772 mmHg 88%

    23 February, Sunday

    Time Temperature Precipitation Wind Pressure Humidity
    00:00 +9°C° 0 mm 2 mps 772 mmHg 88%
    01:00 +9°C° 0 mm 2 mps 772 mmHg 88%
    02:00 +9°C° 0 mm 2 mps 772 mmHg 88%
    03:00 +9°C° 0 mm 2 mps 772 mmHg 88%
    04:00 +8°C° 0 mm 2 mps 772 mmHg 88%
    05:00 +8°C° 0 mm 2 mps 772 mmHg 88%
    06:00 +8°C° 0 mm 2 mps 772 mmHg 88%
    07:00 +8°C° 0 mm 2 mps 772 mmHg 88%
    08:00 +11°C° 0 mm 1 mps 772 mmHg 82%
    09:00 +13°C° 0 mm 1 mps 772 mmHg 76%
    10:00 +15°C° 0 mm 1 mps 773 mmHg 70%
    11:00 +16°C° 0 mm 1 mps 772 mmHg 66%
    12:00 +18°C° 0 mm 1 mps 772 mmHg 61%
    13:00 +19°C° 0 mm 1 mps 772 mmHg 57%
    14:00 +18°C° 0 mm 2 mps 771 mmHg 58%
    15:00 +17°C° 0 mm 2 mps 771 mmHg 60%
    16:00 +17°C° 0 mm 2 mps 771 mmHg 61%
    17:00 +15°C° 0 mm 2 mps 771 mmHg 69%
    18:00 +13°C° 0 mm 1 mps 771 mmHg 77%
    19:00 +12°C° 0 mm 1 mps 771 mmHg 85%
    20:00 +11°C° 0 mm 1 mps 771 mmHg 85%
    21:00 +10°C° 0 mm 0 mps 771 mmHg 85%
    22:00 +9°C° 0 mm 0 mps 772 mmHg 86%
    23:00 +10°C° 0 mm 1 mps 771 mmHg 86%
    Show more